When you browse on this site, cookies collect data to enhance your experience and personalize the content and advertising you see.
Visit our Privacy Policy to learn more. By continuing to use the site, you agree to this use of cookies and data.
  • In Germany
  • List of Countries
  • For 7 days
  • Water Temperature
  • Satellite Maps
  • Weather Map
  • Weather Widgets
  • user-avatar
    Login

    Hourly Weather Novomoiseevskiy

    Today, 20 November, Tuesday

    Time Temperature Precipitation Wind Pressure Humidity
    00:00 -3°C° 0 mm 4 mps 766 mmHg 81%
    01:00 -3°C° 0.2 mm 4 mps 766 mmHg 83%
    02:00 -2°C° 0.2 mm 4 mps 766 mmHg 85%
    03:00 -1°C° 0 mm 3 mps 766 mmHg 88%
    04:00 -2°C° 0.6 mm 4 mps 765 mmHg 90%
    05:00 -2°C° 0.6 mm 4 mps 765 mmHg 91%
    06:00 -2°C° 0.6 mm 4 mps 765 mmHg 93%
    07:00 -2°C° 0.3 mm 4 mps 765 mmHg 93%
    08:00 -2°C° 0.3 mm 5 mps 765 mmHg 93%
    09:00 -1°C° 0 mm 5 mps 764 mmHg 92%
    10:00 -1°C° 0.3 mm 5 mps 764 mmHg 93%
    11:00 -1°C° 0.3 mm 5 mps 764 mmHg 94%
    12:00 -1°C° 0.3 mm 5 mps 763 mmHg 95%
    13:00 -1°C° 0.5 mm 5 mps 763 mmHg 95%
    14:00 -1°C° 0.5 mm 5 mps 763 mmHg 95%
    15:00 -1°C° 0.5 mm 5 mps 762 mmHg 95%
    16:00 -1°C° 0.5 mm 5 mps 762 mmHg 95%
    17:00 -1°C° 0.5 mm 5 mps 762 mmHg 95%
    18:00 -1°C° 0.5 mm 5 mps 762 mmHg 94%
    19:00 -1°C° 0.4 mm 5 mps 763 mmHg 94%
    20:00 -1°C° 0.4 mm 5 mps 763 mmHg 93%
    21:00 -1°C° 0.4 mm 5 mps 763 mmHg 92%
    22:00 -2°C° 0 mm 5 mps 763 mmHg 92%
    23:00 -2°C° 0 mm 4 mps 764 mmHg 91%

    Tomorrow, 21 November, Wednesday

    Time Temperature Precipitation Wind Pressure Humidity
    00:00 -2°C° 0 mm 4 mps 764 mmHg 90%
    01:00 -3°C° 0 mm 4 mps 764 mmHg 90%
    02:00 -2°C° 0 mm 3 mps 765 mmHg 90%
    03:00 -4°C° 0 mm 3 mps 765 mmHg 89%
    04:00 -5°C° 0 mm 3 mps 765 mmHg 88%
    05:00 -5°C° 0 mm 3 mps 765 mmHg 87%
    06:00 -6°C° 0 mm 3 mps 765 mmHg 86%
    07:00 -6°C° 0 mm 3 mps 766 mmHg 85%
    08:00 -5°C° 0 mm 2 mps 766 mmHg 84%
    09:00 -5°C° 0 mm 2 mps 766 mmHg 84%
    10:00 -4°C° 0 mm 2 mps 766 mmHg 84%
    11:00 -2°C° 0 mm 2 mps 766 mmHg 83%
    12:00 -1°C° 0 mm 2 mps 766 mmHg 83%
    13:00 -1°C° 0 mm 2 mps 765 mmHg 85%
    14:00 -1°C° 0 mm 2 mps 765 mmHg 87%
    15:00 -1°C° 0 mm 2 mps 765 mmHg 89%
    16:00 -2°C° 0 mm 2 mps 765 mmHg 89%
    17:00 -3°C° 0 mm 2 mps 765 mmHg 90%
    18:00 -4°C° 0 mm 2 mps 765 mmHg 91%
    19:00 -5°C° 0 mm 2 mps 765 mmHg 91%
    20:00 -5°C° 0 mm 2 mps 765 mmHg 90%
    21:00 -5°C° 0 mm 2 mps 765 mmHg 90%
    22:00 -5°C° 0 mm 2 mps 765 mmHg 90%
    23:00 -5°C° 0 mm 2 mps 765 mmHg 90%

    Day after tomorrow, 22 November, Thursday

    Time Temperature Precipitation Wind Pressure Humidity
    00:00 -6°C° 0 mm 2 mps 764 mmHg 89%
    01:00 -6°C° 0 mm 2 mps 764 mmHg 89%
    02:00 -6°C° 0 mm 2 mps 764 mmHg 89%
    03:00 -6°C° 0 mm 2 mps 764 mmHg 88%
    04:00 -6°C° 0 mm 2 mps 764 mmHg 88%
    05:00 -6°C° 0 mm 2 mps 764 mmHg 88%
    06:00 -7°C° 0 mm 2 mps 764 mmHg 88%
    07:00 -6°C° 0 mm 2 mps 764 mmHg 89%
    08:00 -6°C° 0 mm 2 mps 764 mmHg 89%
    09:00 -6°C° 0 mm 2 mps 765 mmHg 89%
    10:00 -5°C° 0 mm 2 mps 765 mmHg 88%
    11:00 -4°C° 0 mm 2 mps 764 mmHg 86%
    12:00 -3°C° 0 mm 2 mps 764 mmHg 85%
    13:00 -3°C° 0 mm 2 mps 764 mmHg 87%
    14:00 -2°C° 0 mm 2 mps 764 mmHg 88%
    15:00 -2°C° 0 mm 2 mps 764 mmHg 89%
    16:00 -4°C° 0 mm 2 mps 764 mmHg 90%
    17:00 -5°C° 0 mm 2 mps 764 mmHg 91%
    18:00 -6°C° 0 mm 2 mps 764 mmHg 91%
    19:00 -6°C° 0 mm 2 mps 764 mmHg 90%
    20:00 -6°C° 0 mm 2 mps 764 mmHg 90%
    21:00 -6°C° 0 mm 2 mps 765 mmHg 89%
    22:00 -6°C° 0 mm 2 mps 764 mmHg 88%
    23:00 -7°C° 0 mm 2 mps 764 mmHg 88%

    23 November, Friday

    Time Temperature Precipitation Wind Pressure Humidity
    00:00 -7°C° 0 mm 2 mps 764 mmHg 87%
    01:00 -7°C° 0 mm 2 mps 764 mmHg 87%
    02:00 -8°C° 0 mm 3 mps 764 mmHg 87%
    03:00 -8°C° 0 mm 3 mps 764 mmHg 87%
    04:00 -8°C° 0 mm 3 mps 763 mmHg 87%
    05:00 -8°C° 0 mm 3 mps 763 mmHg 87%
    06:00 -9°C° 0 mm 4 mps 763 mmHg 87%
    07:00 -8°C° 0 mm 4 mps 764 mmHg 87%
    08:00 -8°C° 0 mm 4 mps 764 mmHg 87%
    09:00 -7°C° 0 mm 4 mps 765 mmHg 87%
    10:00 -7°C° 0 mm 4 mps 765 mmHg 87%
    11:00 -5°C° 0 mm 4 mps 765 mmHg 86%
    12:00 -4°C° 0 mm 4 mps 766 mmHg 86%
    13:00 -3°C° 0 mm 4 mps 766 mmHg 86%
    14:00 -2°C° 0 mm 3 mps 766 mmHg 87%
    15:00 -2°C° 0 mm 3 mps 767 mmHg 88%
    16:00 -4°C° 0 mm 3 mps 768 mmHg 88%
    17:00 -5°C° 0 mm 3 mps 769 mmHg 88%
    18:00 -5°C° 0 mm 2 mps 769 mmHg 89%
    19:00 -5°C° 0 mm 2 mps 770 mmHg 87%
    20:00 -6°C° 0 mm 2 mps 771 mmHg 85%
    21:00 -6°C° 0 mm 2 mps 772 mmHg 83%
    22:00 -4°C° 0 mm 1 mps 772 mmHg 81%
    23:00 -6°C° 0 mm 1 mps 772 mmHg 79%

    24 November, Saturday

    Time Temperature Precipitation Wind Pressure Humidity
    00:00 -6°C° 0 mm 1 mps 773 mmHg 77%
    01:00 -6°C° 0 mm 1 mps 773 mmHg 76%
    02:00 -7°C° 0 mm 1 mps 773 mmHg 75%
    03:00 -7°C° 0 mm 1 mps 773 mmHg 73%
    04:00 -7°C° 0 mm 1 mps 774 mmHg 73%
    05:00 -7°C° 0 mm 1 mps 774 mmHg 73%
    06:00 -7°C° 0 mm 1 mps 774 mmHg 73%
    07:00 -7°C° 0 mm 1 mps 774 mmHg 74%
    08:00 -6°C° 0 mm 1 mps 774 mmHg 74%
    09:00 -6°C° 0 mm 1 mps 774 mmHg 75%
    10:00 -6°C° 0 mm 2 mps 774 mmHg 74%
    11:00 -4°C° 0 mm 2 mps 774 mmHg 72%
    12:00 -3°C° 0 mm 2 mps 774 mmHg 71%
    13:00 -3°C° 0 mm 2 mps 773 mmHg 73%
    14:00 -3°C° 0 mm 2 mps 773 mmHg 75%
    15:00 -3°C° 0 mm 2 mps 772 mmHg 77%
    16:00 -4°C° 0 mm 2 mps 772 mmHg 76%
    17:00 -5°C° 0 mm 2 mps 772 mmHg 76%
    18:00 -7°C° 0 mm 3 mps 772 mmHg 76%
    19:00 -7°C° 0 mm 3 mps 772 mmHg 76%
    20:00 -7°C° 0 mm 3 mps 771 mmHg 76%
    21:00 -7°C° 0 mm 3 mps 771 mmHg 76%
    22:00 -6°C° 0 mm 2 mps 771 mmHg 77%
    23:00 -6°C° 0 mm 2 mps 770 mmHg 79%

    25 November, Sunday

    Time Temperature Precipitation Wind Pressure Humidity
    00:00 -6°C° 0 mm 2 mps 770 mmHg 80%
    01:00 -6°C° 0 mm 2 mps 770 mmHg 81%
    02:00 -7°C° 0 mm 2 mps 769 mmHg 82%
    03:00 -7°C° 0 mm 2 mps 769 mmHg 82%
    04:00 -7°C° 0 mm 2 mps 769 mmHg 82%
    05:00 -7°C° 0 mm 2 mps 768 mmHg 82%
    06:00 -7°C° 0 mm 2 mps 768 mmHg 82%
    07:00 -6°C° 0 mm 1 mps 768 mmHg 82%
    08:00 -4°C° 0 mm 1 mps 767 mmHg 82%
    09:00 -4°C° 0 mm 1 mps 767 mmHg 82%
    10:00 -2°C° 0 mm 1 mps 767 mmHg 80%
    11:00 -1°C° 0 mm 1 mps 766 mmHg 79%
    12:00 +1°C° 0 mm 1 mps 766 mmHg 77%
    13:00 +1°C° 0 mm 1 mps 765 mmHg 78%
    14:00 +1°C° 0 mm 1 mps 765 mmHg 80%
    15:00 0°C° 0 mm 0 mps 765 mmHg 82%
    16:00 0°C° 0 mm 1 mps 764 mmHg 82%
    17:00 -2°C° 0 mm 1 mps 764 mmHg 82%
    18:00 -3°C° 0 mm 1 mps 764 mmHg 81%
    19:00 -3°C° 0 mm 1 mps 764 mmHg 81%
    20:00 -3°C° 0 mm 1 mps 764 mmHg 80%
    21:00 -3°C° 0 mm 1 mps 764 mmHg 79%
    22:00 -4°C° 0 mm 0 mps 763 mmHg 79%
    23:00 -4°C° 0 mm 0 mps 763 mmHg 78%
    Show more